contact:dominique.lefevre@mio.osupytheas.fr, maurice.libes@osupytheas.fr, didier.mallarino@osupytheas.fr
Project:EMSO http://www.emso-fr.org/EMSO-France
Depth: 2436.0 m
Title:EMSO Ligure Ouest : Data MII capteur OXYGEN
DateTime,Latitude,Longitude,Optode-Type,Optode_Serial,Oxygen,Saturation_Oxygen,Temperature
DateTime,Latitude,Longitude,Optode-Type,Optode_Serial,µmol.l-1,%,degC
2019-07-22T00:02:42,42.805,6.029,4330,1995,192.592,58.903,13.292
2019-07-22T00:05:42,42.805,6.029,4330,1995,192.609,58.904,13.289
2019-07-22T00:08:42,42.805,6.029,4330,1995,192.587,58.899,13.290
2019-07-22T00:11:42,42.805,6.029,4330,1995,192.500,58.871,13.290
2019-07-22T00:14:42,42.805,6.029,4330,1995,192.548,58.887,13.290
2019-07-22T00:17:42,42.805,6.029,4330,1995,192.529,58.882,13.291
2019-07-22T00:20:42,42.805,6.029,4330,1995,192.544,58.886,13.290
2019-07-22T00:23:42,42.805,6.029,4330,1995,192.562,58.894,13.293
2019-07-22T00:26:42,42.805,6.029,4330,1995,192.503,58.876,13.292
2019-07-22T00:29:42,42.805,6.029,4330,1995,192.498,58.879,13.296
2019-07-22T00:32:42,42.805,6.029,4330,1995,192.458,58.865,13.294
2019-07-22T00:35:42,42.805,6.029,4330,1995,192.453,58.865,13.296
2019-07-22T00:38:42,42.805,6.029,4330,1995,192.324,58.827,13.297
2019-07-22T00:41:42,42.805,6.029,4330,1995,192.351,58.829,13.292
2019-07-22T00:44:42,42.805,6.029,4330,1995,192.451,58.862,13.294
2019-07-22T00:47:42,42.805,6.029,4330,1995,192.400,58.844,13.292
2019-07-22T00:50:42,42.805,6.029,4330,1995,192.463,58.862,13.291
2019-07-22T00:53:42,42.805,6.029,4330,1995,192.465,58.866,13.294
2019-07-22T00:56:42,42.805,6.029,4330,1995,192.545,58.892,13.295
2019-07-22T00:59:42,42.805,6.029,4330,1995,192.455,58.862,13.293
2019-07-22T01:02:42,42.805,6.029,4330,1995,192.382,58.842,13.295
2019-07-22T01:05:42,42.805,6.029,4330,1995,192.397,58.845,13.293
2019-07-22T01:08:42,42.805,6.029,4330,1995,192.354,58.830,13.293
2019-07-22T01:17:42,42.805,6.029,4330,1995,192.489,58.866,13.288
2019-07-22T01:20:42,42.805,6.029,4330,1995,192.533,58.882,13.290
2019-07-22T01:23:42,42.805,6.029,4330,1995,192.529,58.883,13.291
2019-07-22T01:26:42,42.805,6.029,4330,1995,192.447,58.859,13.293
2019-07-22T01:29:42,42.805,6.029,4330,1995,192.441,58.856,13.291
2019-07-22T01:32:42,42.805,6.029,4330,1995,192.424,58.850,13.291
2019-07-22T01:35:42,42.805,6.029,4330,1995,192.400,58.847,13.295
2019-07-22T01:38:42,42.805,6.029,4330,1995,192.440,58.858,13.293
2019-07-22T01:41:42,42.805,6.029,4330,1995,192.415,58.849,13.292
2019-07-22T01:44:42,42.805,6.029,4330,1995,192.355,58.829,13.291
2019-07-22T01:47:42,42.805,6.029,4330,1995,192.473,58.866,13.292
2019-07-22T01:50:42,42.805,6.029,4330,1995,192.312,58.821,13.295
2019-07-22T01:53:42,42.805,6.029,4330,1995,192.318,58.822,13.294
2019-07-22T01:56:42,42.805,6.029,4330,1995,192.335,58.826,13.294
2019-07-22T01:59:42,42.805,6.029,4330,1995,192.283,58.812,13.295
2019-07-22T02:02:42,42.805,6.029,4330,1995,192.326,58.822,13.293
2019-07-22T02:05:42,42.805,6.029,4330,1995,192.384,58.838,13.291
2019-07-22T02:08:42,42.805,6.029,4330,1995,192.388,58.841,13.293
2019-07-22T02:11:42,42.805,6.029,4330,1995,192.449,58.859,13.292
2019-07-22T02:14:42,42.805,6.029,4330,1995,192.419,58.849,13.291
2019-07-22T02:17:42,42.805,6.029,4330,1995,192.392,58.842,13.292
2019-07-22T02:20:42,42.805,6.029,4330,1995,192.381,58.840,13.293
2019-07-22T02:23:42,42.805,6.029,4330,1995,192.284,58.808,13.292
2019-07-22T02:26:42,42.805,6.029,4330,1995,192.250,58.797,13.291
2019-07-22T02:29:42,42.805,6.029,4330,1995,192.297,58.812,13.292
2019-07-22T02:32:42,42.805,6.029,4330,1995,192.309,58.815,13.291
2019-07-22T02:35:42,42.805,6.029,4330,1995,192.284,58.807,13.291
2019-07-22T02:38:42,42.805,6.029,4330,1995,192.340,58.826,13.292
2019-07-22T02:41:42,42.805,6.029,4330,1995,192.178,58.775,13.291
2019-07-22T02:44:42,42.805,6.029,4330,1995,192.184,58.777,13.291
2019-07-22T02:47:42,42.805,6.029,4330,1995,192.184,58.778,13.292
2019-07-22T02:50:42,42.805,6.029,4330,1995,192.126,58.761,13.292
2019-07-22T02:53:42,42.805,6.029,4330,1995,192.098,58.750,13.291
2019-07-22T02:56:42,42.805,6.029,4330,1995,192.131,58.761,13.292
2019-07-22T02:59:42,42.805,6.029,4330,1995,192.116,58.756,13.291
2019-07-22T03:02:42,42.805,6.029,4330,1995,192.148,58.767,13.292
2019-07-22T03:05:42,42.805,6.029,4330,1995,191.993,58.720,13.293
2019-07-22T03:08:42,42.805,6.029,4330,1995,192.053,58.738,13.293
2019-07-22T03:11:42,42.805,6.029,4330,1995,192.114,58.755,13.291
2019-07-22T03:14:42,42.805,6.029,4330,1995,192.043,58.735,13.293
2019-07-22T03:17:42,42.805,6.029,4330,1995,192.046,58.735,13.291
2019-07-22T03:20:42,42.805,6.029,4330,1995,191.961,58.712,13.294
2019-07-22T03:23:42,42.805,6.029,4330,1995,191.899,58.690,13.291
2019-07-22T03:26:42,42.805,6.029,4330,1995,191.942,58.702,13.291
2019-07-22T03:29:42,42.805,6.029,4330,1995,191.949,58.707,13.293
2019-07-22T03:32:42,42.805,6.029,4330,1995,191.941,58.704,13.292
2019-07-22T03:35:42,42.805,6.029,4330,1995,192.046,58.736,13.292
2019-07-22T03:38:42,42.805,6.029,4330,1995,191.947,58.705,13.291
2019-07-22T03:41:42,42.805,6.029,4330,1995,192.011,58.725,13.292
2019-07-22T03:44:42,42.805,6.029,4330,1995,191.982,58.717,13.292
2019-07-22T03:56:42,42.805,6.029,4330,1995,192.009,58.719,13.288
2019-07-22T03:59:42,42.805,6.029,4330,1995,192.037,58.732,13.291
2019-07-22T04:02:42,42.805,6.029,4330,1995,191.874,58.688,13.296
2019-07-22T04:05:42,42.805,6.029,4330,1995,191.862,58.680,13.293
2019-07-22T04:08:42,42.805,6.029,4330,1995,191.885,58.686,13.292
2019-07-22T04:11:42,42.805,6.029,4330,1995,191.932,58.704,13.295
2019-07-22T04:14:42,42.805,6.029,4330,1995,191.939,58.706,13.294
2019-07-22T04:17:42,42.805,6.029,4330,1995,191.945,58.707,13.294
2019-07-22T04:20:42,42.805,6.029,4330,1995,191.797,58.662,13.294
2019-07-22T04:23:42,42.805,6.029,4330,1995,191.748,58.646,13.293
2019-07-22T04:26:42,42.805,6.029,4330,1995,191.804,58.663,13.293
2019-07-22T04:29:42,42.805,6.029,4330,1995,191.749,58.645,13.292
2019-07-22T04:32:42,42.805,6.029,4330,1995,191.811,58.663,13.292
2019-07-22T04:35:42,42.805,6.029,4330,1995,191.901,58.691,13.292
2019-07-22T04:38:42,42.805,6.029,4330,1995,191.850,58.676,13.292
2019-07-22T04:41:42,42.805,6.029,4330,1995,191.852,58.676,13.292
2019-07-22T04:44:42,42.805,6.029,4330,1995,191.945,58.705,13.292
2019-07-22T04:47:42,42.805,6.029,4330,1995,191.985,58.715,13.290
2019-07-22T04:50:42,42.805,6.029,4330,1995,191.941,58.704,13.292
2019-07-22T04:53:42,42.805,6.029,4330,1995,192.001,58.720,13.290
2019-07-22T04:56:42,42.805,6.029,4330,1995,191.995,58.719,13.291
2019-07-22T04:59:42,42.805,6.029,4330,1995,192.077,58.743,13.291
2019-07-22T05:02:42,42.805,6.029,4330,1995,192.042,58.734,13.291
2019-07-22T05:05:42,42.805,6.029,4330,1995,192.042,58.733,13.291
2019-07-22T05:08:42,42.805,6.029,4330,1995,191.954,58.705,13.290
2019-07-22T05:11:42,42.805,6.029,4330,1995,192.051,58.737,13.292
2019-07-22T05:14:42,42.805,6.029,4330,1995,191.955,58.707,13.292
2019-07-22T05:17:42,42.805,6.029,4330,1995,191.920,58.698,13.293
2019-07-22T05:20:42,42.805,6.029,4330,1995,191.865,58.682,13.294
2019-07-22T05:23:42,42.805,6.029,4330,1995,191.917,58.697,13.292
2019-07-22T05:26:42,42.805,6.029,4330,1995,191.928,58.699,13.292
2019-07-22T05:29:42,42.805,6.029,4330,1995,191.905,58.694,13.293
2019-07-22T05:32:42,42.805,6.029,4330,1995,192.048,58.736,13.292
2019-07-22T05:35:42,42.805,6.029,4330,1995,192.117,58.757,13.292
2019-07-22T05:38:42,42.805,6.029,4330,1995,192.194,58.780,13.291
2019-07-22T05:41:42,42.805,6.029,4330,1995,192.217,58.788,13.292
2019-07-22T05:44:42,42.805,6.029,4330,1995,192.168,58.775,13.294
2019-07-22T05:47:42,42.805,6.029,4330,1995,191.971,58.714,13.293
2019-07-22T05:50:42,42.805,6.029,4330,1995,191.951,58.708,13.293
2019-07-22T05:53:42,42.805,6.029,4330,1995,191.953,58.708,13.293
2019-07-22T05:56:42,42.805,6.029,4330,1995,191.974,58.718,13.295
2019-07-22T05:59:42,42.805,6.029,4330,1995,191.880,58.685,13.293
2019-07-22T06:02:42,42.805,6.029,4330,1995,191.956,58.708,13.292
2019-07-22T06:05:42,42.805,6.029,4330,1995,192.104,58.752,13.291
2019-07-22T06:08:42,42.805,6.029,4330,1995,192.000,58.723,13.293
2019-07-22T06:11:42,42.805,6.029,4330,1995,192.085,58.748,13.292
2019-07-22T06:14:42,42.805,6.029,4330,1995,191.978,58.715,13.292
2019-07-22T06:17:42,42.805,6.029,4330,1995,192.020,58.729,13.293
2019-07-22T06:20:42,42.805,6.029,4330,1995,192.096,58.754,13.295
2019-07-22T06:26:42,42.805,6.029,4330,1995,192.209,58.786,13.292
2019-07-22T06:29:42,42.805,6.029,4330,1995,192.063,58.742,13.293
2019-07-22T06:32:42,42.805,6.029,4330,1995,192.114,58.758,13.293
2019-07-22T06:35:42,42.805,6.029,4330,1995,192.073,58.746,13.294
2019-07-22T06:38:42,42.805,6.029,4330,1995,192.155,58.771,13.294
2019-07-22T06:41:42,42.805,6.029,4330,1995,192.087,58.751,13.294
2019-07-22T06:44:42,42.805,6.029,4330,1995,191.961,58.712,13.294
2019-07-22T06:47:42,42.805,6.029,4330,1995,192.019,58.730,13.294
2019-07-22T06:50:42,42.805,6.029,4330,1995,191.934,58.703,13.294
2019-07-22T06:53:42,42.805,6.029,4330,1995,191.892,58.690,13.294
2019-07-22T06:56:42,42.805,6.029,4330,1995,191.850,58.676,13.292
2019-07-22T06:59:42,42.805,6.029,4330,1995,191.993,58.722,13.294
2019-07-22T07:02:42,42.805,6.029,4330,1995,191.891,58.690,13.294
2019-07-22T07:05:42,42.805,6.029,4330,1995,192.023,58.728,13.291
2019-07-22T07:08:42,42.805,6.029,4330,1995,192.056,58.738,13.291
2019-07-22T07:11:42,42.805,6.029,4330,1995,192.000,58.721,13.292
2019-07-22T07:14:42,42.805,6.029,4330,1995,192.069,58.741,13.291
2019-07-22T07:17:42,42.805,6.029,4330,1995,192.161,58.770,13.291
2019-07-22T07:20:42,42.805,6.029,4330,1995,192.064,58.740,13.291
2019-07-22T07:23:42,42.805,6.029,4330,1995,192.097,58.748,13.290
2019-07-22T07:26:42,42.805,6.029,4330,1995,192.147,58.764,13.290
2019-07-22T07:29:42,42.805,6.029,4330,1995,192.238,58.792,13.291
2019-07-22T07:32:42,42.805,6.029,4330,1995,192.214,58.786,13.291
2019-07-22T07:35:42,42.805,6.029,4330,1995,192.126,58.758,13.291
2019-07-22T07:38:42,42.805,6.029,4330,1995,192.197,58.780,13.291
2019-07-22T07:41:42,42.805,6.029,4330,1995,192.120,58.756,13.290
2019-07-22T07:44:42,42.805,6.029,4330,1995,192.187,58.777,13.291
2019-07-22T07:47:42,42.805,6.029,4330,1995,192.247,58.796,13.291
2019-07-22T07:50:42,42.805,6.029,4330,1995,192.219,58.787,13.291
2019-07-22T07:53:42,42.805,6.029,4330,1995,192.249,58.796,13.291
2019-07-22T07:56:42,42.805,6.029,4330,1995,192.276,58.804,13.290
2019-07-22T07:59:42,42.805,6.029,4330,1995,192.348,58.826,13.290
2019-07-22T08:02:42,42.805,6.029,4330,1995,192.269,58.802,13.291
2019-07-22T08:05:42,42.805,6.029,4330,1995,192.365,58.830,13.290
2019-07-22T08:08:42,42.805,6.029,4330,1995,192.337,58.824,13.291
2019-07-22T08:11:42,42.805,6.029,4330,1995,192.323,58.818,13.290
2019-07-22T08:14:42,42.805,6.029,4330,1995,192.272,58.804,13.291
2019-07-22T08:17:42,42.805,6.029,4330,1995,192.382,58.838,13.291
2019-07-22T08:20:42,42.805,6.029,4330,1995,192.390,58.839,13.291
2019-07-22T08:23:41,42.805,6.029,4330,1995,192.449,58.857,13.290
2019-07-22T08:26:41,42.805,6.029,4330,1995,192.340,58.825,13.292
2019-07-22T08:29:41,42.805,6.029,4330,1995,192.317,58.818,13.291
2019-07-22T08:32:41,42.805,6.029,4330,1995,192.312,58.816,13.291
2019-07-22T08:35:41,42.805,6.029,4330,1995,192.350,58.827,13.291
2019-07-22T08:38:41,42.805,6.029,4330,1995,192.323,58.819,13.291
2019-07-22T08:41:41,42.805,6.029,4330,1995,192.327,58.821,13.292
2019-07-22T08:44:41,42.805,6.029,4330,1995,192.381,58.837,13.291
2019-07-22T08:47:41,42.805,6.029,4330,1995,192.389,58.841,13.293
2019-07-22T08:50:41,42.805,6.029,4330,1995,192.344,58.829,13.293
2019-07-22T08:53:41,42.805,6.029,4330,1995,192.305,58.815,13.292
2019-07-22T09:02:41,42.805,6.029,4330,1995,192.507,58.871,13.288
2019-07-22T09:05:41,42.805,6.029,4330,1995,192.372,58.833,13.290
2019-07-22T09:08:41,42.805,6.029,4330,1995,192.482,58.867,13.290
2019-07-22T09:11:41,42.805,6.029,4330,1995,192.416,58.847,13.291
2019-07-22T09:14:41,42.805,6.029,4330,1995,192.442,58.855,13.291
2019-07-22T09:17:41,42.805,6.029,4330,1995,192.402,58.843,13.291
2019-07-22T09:20:41,42.805,6.029,4330,1995,192.297,58.812,13.292
2019-07-22T09:23:41,42.805,6.029,4330,1995,192.413,58.847,13.292
2019-07-22T09:26:41,42.805,6.029,4330,1995,192.449,58.859,13.292
2019-07-22T09:29:41,42.805,6.029,4330,1995,192.391,58.841,13.292
2019-07-22T09:32:41,42.805,6.029,4330,1995,192.504,58.874,13.290
2019-07-22T09:35:41,42.805,6.029,4330,1995,192.442,58.856,13.291
2019-07-22T09:38:41,42.805,6.029,4330,1995,192.499,58.873,13.291
2019-07-22T09:41:41,42.805,6.029,4330,1995,192.469,58.863,13.290
2019-07-22T09:44:41,42.805,6.029,4330,1995,192.473,58.866,13.292
2019-07-22T09:47:41,42.805,6.029,4330,1995,192.431,58.853,13.292
2019-07-22T09:50:41,42.805,6.029,4330,1995,192.417,58.849,13.292
2019-07-22T09:53:41,42.805,6.029,4330,1995,192.448,58.859,13.292
2019-07-22T09:56:41,42.805,6.029,4330,1995,192.467,58.864,13.291
2019-07-22T09:59:41,42.805,6.029,4330,1995,192.518,58.878,13.291
2019-07-22T10:02:41,42.805,6.029,4330,1995,192.410,58.846,13.291
2019-07-22T10:05:41,42.805,6.029,4330,1995,192.446,58.856,13.290
2019-07-22T10:08:41,42.805,6.029,4330,1995,192.416,58.847,13.290
2019-07-22T10:11:41,42.805,6.029,4330,1995,192.447,58.856,13.290
2019-07-22T10:14:41,42.805,6.029,4330,1995,192.479,58.866,13.291
2019-07-22T10:17:41,42.805,6.029,4330,1995,192.495,58.870,13.290
2019-07-22T10:20:41,42.805,6.029,4330,1995,192.506,58.873,13.290
2019-07-22T10:23:41,42.805,6.029,4330,1995,192.478,58.864,13.290
2019-07-22T10:26:41,42.805,6.029,4330,1995,192.412,58.845,13.290
2019-07-22T10:29:41,42.805,6.029,4330,1995,192.400,58.840,13.289
2019-07-22T10:32:41,42.805,6.029,4330,1995,192.516,58.876,13.290
2019-07-22T10:35:41,42.805,6.029,4330,1995,192.558,58.889,13.290
2019-07-22T10:38:41,42.805,6.029,4330,1995,192.570,58.892,13.289
2019-07-22T10:41:41,42.805,6.029,4330,1995,192.619,58.909,13.290
2019-07-22T10:44:41,42.805,6.029,4330,1995,192.507,58.873,13.290
2019-07-22T10:47:41,42.805,6.029,4330,1995,192.394,58.839,13.290
2019-07-22T10:50:41,42.805,6.029,4330,1995,192.500,58.871,13.289
2019-07-22T10:53:41,42.805,6.029,4330,1995,192.521,58.877,13.289
2019-07-22T10:56:41,42.805,6.029,4330,1995,192.474,58.863,13.289
2019-07-22T10:59:41,42.805,6.029,4330,1995,192.502,58.872,13.290
2019-07-22T11:02:41,42.805,6.029,4330,1995,192.489,58.867,13.289
2019-07-22T11:05:41,42.805,6.029,4330,1995,192.527,58.880,13.290
2019-07-22T11:08:41,42.805,6.029,4330,1995,192.521,58.879,13.291
2019-07-22T11:11:41,42.805,6.029,4330,1995,192.529,58.880,13.289
2019-07-22T11:14:41,42.805,6.029,4330,1995,192.513,58.876,13.290
2019-07-22T11:17:41,42.805,6.029,4330,1995,192.575,58.894,13.290
2019-07-22T11:20:41,42.805,6.029,4330,1995,192.641,58.915,13.290
2019-07-22T11:23:41,42.805,6.029,4330,1995,192.627,58.913,13.292
2019-07-22T11:26:41,42.805,6.029,4330,1995,192.569,58.893,13.290
2019-07-22T11:29:41,42.805,6.029,4330,1995,192.561,58.890,13.289
2019-07-22T11:35:41,42.805,6.029,4330,1995,192.728,58.940,13.288
2019-07-22T11:38:41,42.805,6.029,4330,1995,192.760,58.949,13.288
2019-07-22T11:41:41,42.805,6.029,4330,1995,192.807,58.964,13.289
2019-07-22T11:44:41,42.805,6.029,4330,1995,192.809,58.965,13.289
2019-07-22T11:47:41,42.805,6.029,4330,1995,192.871,58.984,13.289
2019-07-22T11:50:41,42.805,6.029,4330,1995,192.861,58.981,13.289
2019-07-22T11:53:41,42.805,6.029,4330,1995,192.814,58.967,13.290
2019-07-22T11:56:41,42.805,6.029,4330,1995,192.843,58.977,13.290
2019-07-22T11:59:41,42.805,6.029,4330,1995,192.842,58.977,13.290
2019-07-22T12:02:41,42.805,6.029,4330,1995,192.859,58.981,13.289
2019-07-22T12:05:41,42.805,6.029,4330,1995,192.744,58.948,13.291
2019-07-22T12:08:41,42.805,6.029,4330,1995,192.813,58.968,13.290
2019-07-22T12:11:41,42.805,6.029,4330,1995,192.846,58.978,13.290
2019-07-22T12:14:41,42.805,6.029,4330,1995,192.973,59.015,13.289
2019-07-22T12:17:41,42.805,6.029,4330,1995,192.979,59.018,13.290
2019-07-22T12:20:41,42.805,6.029,4330,1995,192.908,58.997,13.291
2019-07-22T12:23:41,42.805,6.029,4330,1995,192.969,59.017,13.291
2019-07-22T12:26:41,42.805,6.029,4330,1995,192.918,59.000,13.291
2019-07-22T12:29:41,42.805,6.029,4330,1995,193.014,59.030,13.291
2019-07-22T12:32:41,42.805,6.029,4330,1995,192.922,59.002,13.291
2019-07-22T12:35:41,42.805,6.029,4330,1995,192.968,59.015,13.290
2019-07-22T12:38:41,42.805,6.029,4330,1995,192.941,59.008,13.291
2019-07-22T12:41:41,42.805,6.029,4330,1995,192.998,59.024,13.290
2019-07-22T12:44:41,42.805,6.029,4330,1995,193.056,59.041,13.290
2019-07-22T12:47:41,42.805,6.029,4330,1995,192.990,59.022,13.291
2019-07-22T12:50:41,42.805,6.029,4330,1995,192.992,59.025,13.292
2019-07-22T12:53:41,42.805,6.029,4330,1995,192.944,59.010,13.292
2019-07-22T12:56:41,42.805,6.029,4330,1995,192.903,58.997,13.292
2019-07-22T12:59:41,42.805,6.029,4330,1995,192.825,58.974,13.292
2019-07-22T13:02:41,42.805,6.029,4330,1995,192.961,59.014,13.291
2019-07-22T13:05:41,42.805,6.029,4330,1995,193.043,59.038,13.291
2019-07-22T13:08:41,42.805,6.029,4330,1995,192.962,59.014,13.290
2019-07-22T13:11:41,42.805,6.029,4330,1995,193.030,59.037,13.292
2019-07-22T13:14:41,42.805,6.029,4330,1995,193.061,59.044,13.291
2019-07-22T13:17:41,42.805,6.029,4330,1995,193.101,59.058,13.292
2019-07-22T13:20:41,42.805,6.029,4330,1995,193.028,59.034,13.291
2019-07-22T13:23:41,42.805,6.029,4330,1995,193.115,59.060,13.290
2019-07-22T13:26:41,42.805,6.029,4330,1995,193.155,59.072,13.290
2019-07-22T13:29:41,42.805,6.029,4330,1995,193.068,59.048,13.292
2019-07-22T13:32:41,42.805,6.029,4330,1995,193.095,59.056,13.291
2019-07-22T13:35:41,42.805,6.029,4330,1995,193.109,59.059,13.291
2019-07-22T13:38:41,42.805,6.029,4330,1995,193.150,59.070,13.290
2019-07-22T13:41:41,42.805,6.029,4330,1995,193.112,59.060,13.291
2019-07-22T13:44:41,42.805,6.029,4330,1995,193.097,59.056,13.292
2019-07-22T13:47:41,42.805,6.029,4330,1995,193.105,59.057,13.290
2019-07-22T13:50:41,42.805,6.029,4330,1995,193.103,59.056,13.290
2019-07-22T13:53:41,42.805,6.029,4330,1995,193.187,59.081,13.289
2019-07-22T13:56:41,42.805,6.029,4330,1995,193.097,59.053,13.289
2019-07-22T13:59:41,42.805,6.029,4330,1995,193.073,59.046,13.289
2019-07-22T14:02:41,42.805,6.029,4330,1995,193.105,59.056,13.289
2019-07-22T14:05:41,42.805,6.029,4330,1995,193.087,59.051,13.290
2019-07-22T14:11:41,42.805,6.029,4330,1995,193.093,59.050,13.288
2019-07-22T14:14:41,42.805,6.029,4330,1995,193.177,59.080,13.291
2019-07-22T14:17:41,42.805,6.029,4330,1995,193.111,59.059,13.290
2019-07-22T14:20:41,42.805,6.029,4330,1995,193.048,59.040,13.290
2019-07-22T14:23:41,42.805,6.029,4330,1995,193.117,59.062,13.291
2019-07-22T14:26:41,42.805,6.029,4330,1995,193.077,59.048,13.290
2019-07-22T14:29:41,42.805,6.029,4330,1995,193.071,59.050,13.293
2019-07-22T14:32:41,42.805,6.029,4330,1995,193.021,59.032,13.290
2019-07-22T14:35:41,42.805,6.029,4330,1995,192.996,59.024,13.290
2019-07-22T14:38:41,42.805,6.029,4330,1995,193.020,59.031,13.291
2019-07-22T14:41:41,42.805,6.029,4330,1995,193.038,59.037,13.291
2019-07-22T14:44:41,42.805,6.029,4330,1995,193.016,59.029,13.290
2019-07-22T14:47:41,42.805,6.029,4330,1995,192.949,59.009,13.290
2019-07-22T14:50:41,42.805,6.029,4330,1995,193.043,59.038,13.290
2019-07-22T14:53:41,42.805,6.029,4330,1995,193.044,59.037,13.289
2019-07-22T14:56:41,42.805,6.029,4330,1995,193.027,59.032,13.289
2019-07-22T14:59:41,42.805,6.029,4330,1995,193.053,59.043,13.291
2019-07-22T15:02:41,42.805,6.029,4330,1995,192.979,59.019,13.291
2019-07-22T15:05:41,42.805,6.029,4330,1995,193.015,59.029,13.290
2019-07-22T15:08:41,42.805,6.029,4330,1995,192.973,59.017,13.291
2019-07-22T15:11:41,42.805,6.029,4330,1995,193.022,59.032,13.290
2019-07-22T15:14:41,42.805,6.029,4330,1995,192.942,59.007,13.290
2019-07-22T15:17:41,42.805,6.029,4330,1995,192.953,59.011,13.291
2019-07-22T15:20:41,42.805,6.029,4330,1995,192.934,59.004,13.290
2019-07-22T15:23:41,42.805,6.029,4330,1995,192.946,59.008,13.290
2019-07-22T15:26:41,42.805,6.029,4330,1995,192.898,58.993,13.289
2019-07-22T15:29:41,42.805,6.029,4330,1995,192.802,58.964,13.290
2019-07-22T15:32:41,42.805,6.029,4330,1995,192.844,58.975,13.289
2019-07-22T15:35:41,42.805,6.029,4330,1995,192.854,58.980,13.290
2019-07-22T15:38:41,42.805,6.029,4330,1995,192.812,58.967,13.290
2019-07-22T15:41:41,42.805,6.029,4330,1995,192.699,58.934,13.291
2019-07-22T15:44:41,42.805,6.029,4330,1995,192.849,58.978,13.290
2019-07-22T15:47:41,42.805,6.029,4330,1995,192.781,58.959,13.291
2019-07-22T15:50:41,42.805,6.029,4330,1995,192.776,58.956,13.290
2019-07-22T15:53:41,42.805,6.029,4330,1995,192.741,58.947,13.291
2019-07-22T15:56:41,42.805,6.029,4330,1995,192.722,58.943,13.292
2019-07-22T15:59:41,42.805,6.029,4330,1995,192.726,58.944,13.292
2019-07-22T16:02:41,42.805,6.029,4330,1995,192.688,58.929,13.290
2019-07-22T16:05:41,42.805,6.029,4330,1995,192.660,58.922,13.291
2019-07-22T16:08:41,42.805,6.029,4330,1995,192.615,58.910,13.293
2019-07-22T16:11:41,42.805,6.029,4330,1995,192.675,58.929,13.293
2019-07-22T16:14:41,42.805,6.029,4330,1995,192.670,58.924,13.290
2019-07-22T16:17:41,42.805,6.029,4330,1995,192.615,58.911,13.293
2019-07-22T16:20:41,42.805,6.029,4330,1995,192.644,58.920,13.293
2019-07-22T16:23:41,42.805,6.029,4330,1995,192.578,58.899,13.293
2019-07-22T16:26:41,42.805,6.029,4330,1995,192.564,58.896,13.294
2019-07-22T16:29:41,42.805,6.029,4330,1995,192.555,58.891,13.292
2019-07-22T16:32:41,42.805,6.029,4330,1995,192.529,58.885,13.293
2019-07-22T16:35:41,42.805,6.029,4330,1995,192.526,58.881,13.291
2019-07-22T16:38:41,42.805,6.029,4330,1995,192.489,58.871,13.292
2019-07-22T16:47:41,42.805,6.029,4330,1995,192.438,58.851,13.289
2019-07-22T16:50:41,42.805,6.029,4330,1995,192.419,58.849,13.291
2019-07-22T16:53:41,42.805,6.029,4330,1995,192.397,58.841,13.291
2019-07-22T16:56:41,42.805,6.029,4330,1995,192.457,58.863,13.293
2019-07-22T16:59:41,42.805,6.029,4330,1995,192.453,58.862,13.293
2019-07-22T17:02:41,42.805,6.029,4330,1995,192.425,58.852,13.292
2019-07-22T17:05:41,42.805,6.029,4330,1995,192.379,58.838,13.292
2019-07-22T17:08:41,42.805,6.029,4330,1995,192.337,58.828,13.295
2019-07-22T17:11:41,42.805,6.029,4330,1995,192.362,58.833,13.292
2019-07-22T17:14:41,42.805,6.029,4330,1995,192.340,58.826,13.292
2019-07-22T17:17:41,42.805,6.029,4330,1995,192.306,58.816,13.293
2019-07-22T17:20:41,42.805,6.029,4330,1995,192.289,58.812,13.294
2019-07-22T17:23:41,42.805,6.029,4330,1995,192.322,58.822,13.294
2019-07-22T17:26:41,42.805,6.029,4330,1995,192.380,58.837,13.292
2019-07-22T17:29:41,42.805,6.029,4330,1995,192.403,58.847,13.293
2019-07-22T17:32:41,42.805,6.029,4330,1995,192.434,58.855,13.292
2019-07-22T17:35:41,42.805,6.029,4330,1995,192.431,58.855,13.293
2019-07-22T17:38:41,42.805,6.029,4330,1995,192.457,58.861,13.291
2019-07-22T17:41:41,42.805,6.029,4330,1995,192.381,58.837,13.291
2019-07-22T17:44:41,42.805,6.029,4330,1995,192.321,58.822,13.294
2019-07-22T17:47:41,42.805,6.029,4330,1995,192.287,58.809,13.292
2019-07-22T17:50:41,42.805,6.029,4330,1995,192.238,58.795,13.293
2019-07-22T17:53:41,42.805,6.029,4330,1995,192.205,58.788,13.295
2019-07-22T17:56:41,42.805,6.029,4330,1995,192.209,58.787,13.293
2019-07-22T17:59:41,42.805,6.029,4330,1995,192.150,58.771,13.295
2019-07-22T18:02:41,42.805,6.029,4330,1995,192.111,58.760,13.295
2019-07-22T18:05:41,42.805,6.029,4330,1995,192.091,58.752,13.294
2019-07-22T18:08:41,42.805,6.029,4330,1995,192.019,58.729,13.293
2019-07-22T18:11:41,42.805,6.029,4330,1995,192.169,58.773,13.291
2019-07-22T18:14:41,42.805,6.029,4330,1995,192.123,58.760,13.293
2019-07-22T18:17:41,42.805,6.029,4330,1995,192.075,58.746,13.293
2019-07-22T18:20:41,42.805,6.029,4330,1995,192.137,58.760,13.289
2019-07-22T18:23:41,42.805,6.029,4330,1995,192.276,58.803,13.290
2019-07-22T18:26:41,42.805,6.029,4330,1995,192.423,58.849,13.290
2019-07-22T18:29:41,42.805,6.029,4330,1995,192.308,58.815,13.292
2019-07-22T18:32:41,42.805,6.029,4330,1995,192.185,58.780,13.293
2019-07-22T18:35:41,42.805,6.029,4330,1995,192.128,58.761,13.293
2019-07-22T18:38:41,42.805,6.029,4330,1995,192.070,58.744,13.293
2019-07-22T18:41:41,42.805,6.029,4330,1995,192.080,58.747,13.293
2019-07-22T18:44:41,42.805,6.029,4330,1995,192.119,58.755,13.290